DW2849 Weather Reports


Display with metric or nautical units.
time (UTC)temp
F
wind
direction
speed
MPH
gust
MPH
rain 1hr
in
rain 24hr
in
rain mn
in
humidity
%
barometer
mb
20260904044000 57 222 1.0 2.0 0.00 0.53 0.32 87 1012.0
20260904042708 57 200 1.0 4.0 0.00 0.53 0.32 87 1011.9
20260904041608 57 222 1.0 2.0 0.00 0.53 0.32 87 1011.8
20260904040509 57 273 1.0 3.0 0.00 0.53 0.32 87 1011.7
20260904035409 57 228 2.0 3.0 0.00 0.53 0.32 87 1011.8
20260904034309 57 244 1.0 2.0 0.00 0.53 0.32 86 1011.7
20260904033018 58 255 2.0 4.0 0.00 0.53 0.32 87 1011.6
20260904031917 58 217 2.0 4.0 0.00 0.53 0.32 87 1011.6
20260904030817 58 225 2.0 3.0 0.00 0.53 0.32 87 1011.6
20260904025718 58 270 1.0 4.0 0.00 0.53 0.32 86 1011.6
20260904024618 58 257 1.0 3.0 0.00 0.53 0.32 86 1011.6
20260904023326 58 222 1.0 5.0 0.00 0.53 0.32 86 1011.6
20260904022226 58 270 3.0 5.0 0.00 0.53 0.32 86 1011.6
20260904021126 58 268 3.0 6.0 0.00 0.53 0.32 86 1011.6
20260904020026 59 219 2.0 3.0 0.00 0.53 0.32 86 1011.7
20260904014926 58 235 2.0 4.0 0.00 0.53 0.32 86 1011.8
20260904013826 59 214 1.0 3.0 0.00 0.53 0.32 86 1011.8
20260904012535 59 270 1.0 4.0 0.00 0.53 0.32 86 1011.8
20260904011435 59 212 1.0 2.0 0.00 0.53 0.32 86 1011.9
20260904010335 59 270 1.0 3.0 0.00 0.53 0.32 86 1011.9
20260904005236 59 225 0.0 3.0 0.00 0.53 0.32 86 1011.8
20260904004135 60 276 2.0 4.0 0.00 0.53 0.32 86 1011.9
20260904003035 60 248 1.0 3.0 0.00 0.53 0.32 86 1012.0
20260904001935 60 200 1.0 5.0 0.00 0.53 0.32 86 1012.1
20260904000644 60 235 1.0 2.0 0.01 0.53 0.32 86 1012.0
20260903235545 59 236 1.0 2.0 0.01 0.53 0.32 86 1012.2
20260903234444 59 222 2.0 6.0 0.01 0.53 0.32 87 1012.4
20260903233153 59 210 1.0 3.0 0.01 0.53 0.32 86 1012.4
20260903232052 59 222 1.0 3.0 0.01 0.53 0.32 86 1012.5
20260903230953 59 198 1.0 2.0 0.01 0.53 0.32 86 1012.7
20260903225854 59 196 1.0 3.0 0.00 0.52 0.31 86 1012.8
20260903224601 59 214 1.0 3.0 0.00 0.52 0.31 86 1012.8
20260903223501 60 259 2.0 6.0 0.00 0.52 0.31 85 1012.9
20260903222401 61 199 1.0 3.0 0.00 0.52 0.31 85 1013.0
20260903221302 61 186 2.0 5.0 0.00 0.52 0.31 85 1012.9
20260903220202 61 190 1.0 3.0 0.00 0.00 0.00 85 1012.9
20260903215101 62 202 1.0 6.0 0.00 0.52 0.31 85 1013.1
20260903214001 62 258 2.0 3.0 0.00 0.52 0.31 85 1013.1
20260903212901 62 270 2.0 4.0 0.00 0.52 0.31 84 1013.1
20260903211802 62 251 1.0 4.0 0.00 0.52 0.31 85 1013.1
20260903210701 62 240 1.0 4.0 0.00 0.52 0.31 84 1013.1
20260903205408 61 250 0.0 5.0 0.00 0.52 0.31 85 1013.2
20260903204308 61 265 2.0 6.0 0.00 0.52 0.31 84 1013.3
20260903203017 61 217 3.0 4.0 0.00 0.52 0.31 86 1013.2
20260903201916 61 170 2.0 6.0 0.00 0.52 0.31 87 1013.3
20260903200817 61 296 3.0 8.0 0.00 0.52 0.31 87 1013.3
20260903195716 61 222 3.0 5.0 0.00 0.52 0.31 86 1013.5
20260903194616 61 292 2.0 6.0 0.00 0.52 0.31 87 1013.6
20260903193517 61 233 3.0 4.0 0.00 0.52 0.31 86 1013.7
20260903192416 60 220 3.0 6.0 0.00 0.52 0.31 87 1013.7
20260903191316 61 208 2.0 4.0 0.00 0.52 0.31 86 1013.8
20260903190025 61 265 3.0 5.0 0.00 0.52 0.31 87 1013.9
20260903184925 60 190 2.0 4.0 0.00 0.52 0.31 87 1014.0
20260903183634 61 253 4.0 9.0 0.01 0.52 0.31 86 1014.0
20260903182534 60 225 2.0 4.0 0.02 0.52 0.31 86 1014.0
20260903181434 60 242 2.0 5.0 0.04 0.52 0.31 86 1014.0
20260903180143 60 219 2.0 4.0 0.04 0.52 0.31 87 1013.9
20260903175043 60 178 2.0 4.0 0.06 0.52 0.31 86 1013.9
20260903173943 59 218 2.0 5.0 0.07 0.51 0.30 86 1013.9
20260903172842 59 202 2.0 6.0 0.09 0.50 0.29 87 1013.9
20260903171743 59 197 2.0 6.0 0.10 0.48 0.27 87 1013.8
20260903170643 60 206 3.0 5.0 0.10 0.48 0.27 87 1013.8
20260903165543 60 218 2.0 5.0 0.09 0.47 0.26 87 1013.8
20260903164443 60 222 2.0 6.0 0.10 0.46 0.25 87 1013.7
20260903163152 60 190 2.0 4.0 0.08 0.42 0.21 87 1013.6
20260903162052 60 238 2.0 8.0 0.06 0.39 0.18 87 1013.6
20260903160951 60 205 3.0 6.0 0.06 0.38 0.17 86 1013.7
20260903155700 60 190 2.0 4.0 0.07 0.38 0.17 86 1013.8
20260903154600 60 214 3.0 7.0 0.08 0.36 0.15 86 1013.8
20260903153500 60 77 2.0 7.0 0.07 0.34 0.13 86 1013.9
20260903152402 60 230 2.0 4.0 0.10 0.34 0.13 86 1014.0
20260903151300 60 220 2.0 6.0 0.09 0.32 0.12 86 1014.0
20260903150009 60 205 3.0 4.0 0.08 0.30 0.09 86 1013.9
20260903144909 59 166 2.0 6.0 0.09 0.29 0.08 86 1013.8
20260903143809 59 191 2.0 8.0 0.08 0.27 0.06 86 1013.8
20260903142709 59 205 2.0 5.0 0.09 0.24 0.03 86 1013.7
20260903141609 59 205 2.0 4.0 0.12 0.23 0.02 86 1013.7
20260903140509 59 198 2.0 4.0 0.13 0.22 0.01 86 1013.6
20260903135409 59 168 2.0 5.0 0.12 0.21 0.20 86 1013.6
20260903134309 59 278 2.0 4.0 0.15 0.21 0.20 86 1013.5
20260903133209 59 225 2.0 4.0 0.15 0.22 0.18 86 1013.6
20260903131917 59 166 2.0 5.0 0.10 0.20 0.12 86 1013.6
20260903130818 59 183 2.0 4.0 0.08 0.22 0.09 86 1013.6
20260903125717 59 186 1.0 2.0 0.08 0.23 0.08 86 1013.7
20260903124618 59 188 1.0 3.0 0.06 0.24 0.06 86 1013.9
20260903123518 59 212 1.0 2.0 0.04 0.26 0.04 86 1013.9
20260903122226 59 180 0.0 2.0 0.02 0.25 0.02 86 1014.1
20260903121126 59 180 0.0 3.0 0.01 0.27 0.01 86 1014.2
20260903120026 59 235 1.0 3.0 0.00 0.30 0.00 86 1014.2
20260903114735 59 208 1.0 3.0 0.00 0.36 0.00 86 1014.2
20260903113635 59 228 2.0 2.0 0.00 0.39 0.00 86 1014.3
20260903112535 59 202 1.0 2.0 0.00 0.40 0.00 86 1014.4
20260903111435 59 186 1.0 2.0 0.00 0.42 0.00 86 1014.5
20260903110335 59 200 1.0 2.0 0.00 0.42 0.00 86 1014.6
20260903105235 59 190 1.0 2.0 0.00 0.42 0.00 86 1014.7
20260903103944 59 183 1.0 2.0 0.00 0.43 0.00 86 1014.7
20260903102843 59 186 1.0 2.0 0.00 0.44 0.00 86 1014.7
20260903101744 59 176 2.0 4.0 0.00 0.44 0.00 86 1014.8
20260903100452 58 208 0.0 2.0 0.00 0.44 0.00 86 1014.8
20260903095352 58 196 1.0 2.0 0.00 0.44 0.00 86 1014.9
20260903094253 58 206 1.0 2.0 0.00 0.44 0.00 86 1014.9
20260903093152 58 202 1.0 2.0 0.00 0.44 0.00 86 1015.0
20260903092052 58 212 1.0 3.0 0.00 0.44 0.00 86 1015.2
20260903090801 58 202 1.0 3.0 0.00 0.44 0.00 86 1015.4
20260903085701 58 202 1.0 2.0 0.00 0.44 0.00 86 1015.4
20260903084601 58 180 2.0 2.0 0.00 0.44 0.00 86 1015.5
20260903083309 58 228 1.0 4.0 0.00 0.44 0.00 86 1015.5
20260903082209 58 202 1.0 2.0 0.00 0.44 0.00 86 1015.6
20260903081109 58 225 1.0 2.0 0.00 0.44 0.00 86 1015.6
20260903080010 58 90 0.0 1.0 0.00 0.44 0.00 85 1015.6
20260903074910 58 214 0.0 2.0 0.00 0.44 0.00 85 1015.6
20260903073810 58 215 1.0 3.0 0.00 0.44 0.00 85 1015.7
20260903072518 58 231 1.0 2.0 0.00 0.44 0.00 85 1015.7
20260903071418 57 264 1.0 4.0 0.00 0.44 0.00 85 1015.8
20260903070318 58 248 2.0 3.0 0.00 0.44 0.00 85 1015.8
20260903065220 58 253 2.0 4.0 0.00 0.44 0.00 85 1015.9
20260903064118 57 235 1.0 2.0 0.00 0.44 0.00 85 1015.9
20260903062827 57 208 1.0 3.0 0.00 0.44 0.00 85 1016.0
20260903061727 57 231 2.0 3.0 0.00 0.44 0.00 85 1016.0
20260903060627 57 225 1.0 2.0 0.00 0.44 0.00 85 1016.1
20260903055527 57 225 1.0 2.0 0.00 0.44 0.00 85 1016.1
20260903054427 57 202 1.0 2.0 0.00 0.44 0.00 85 1016.1
20260903053327 57 231 2.0 4.0 0.00 0.44 0.00 85 1016.1
20260903052227 57 225 1.0 3.0 0.00 0.44 0.00 84 1016.2
20260903051127 57 235 2.0 3.0 0.00 0.44 0.00 84 1016.3
20260903050027 57 244 2.0 2.0 0.00 0.44 0.00 84 1016.4
20260903044734 57 238 2.0 3.0 0.00 0.44 0.00 84 1016.4